This demonstration page uses our WeatherBlox Daily Observations layout. Learn more.

36.19886, -115.1175

Hourly Observations for September 27, 2019

Temp ( °F °C ) Dew Point ( °F °C ) Humidity (%) Winds ( mph kmh ) Pressure ( in mb ) Visibility ( mi km ) Precip ( " mm )
12:53 am 00:53 Clear 72 22.2 56 13.3 57 57 E 7 11 29.83 1010 10 16.09344 0 0
1:53 am 01:53 Clear 72 22.2 56 13.3 57 57 ENE 6 9 29.83 1010 10 16.09344 0 0
2:53 am 02:53 Clear 71 21.7 56 13.3 59 59 N 5 7 29.83 1010 10 16.09344 0 0
3:53 am 03:53 Clear 70 21.1 57 13.9 64 64 NNE 7 11 29.83 1010 10 16.09344 0 0
4:53 am 04:53 Clear 69 20.6 57 13.9 66 66 NNE 6 9 29.83 1010 10 16.09344 0 0
5:53 am 05:53 Clear 68 20 57 13.9 68 68 N 6 9 29.83 1010 10 16.09344 0 0
6:53 am 06:53 Sunny 68 20 57 13.9 68 68 NNE 5 7 29.83 1010 10 16.09344 0 0
7:53 am 07:53 Sunny 71 21.7 57 13.9 61 61 NNE 6 9 29.85 1011 10 16.09344 0 0
8:53 am 08:53 Sunny 73 22.8 57 13.9 57 57 ESE 5 7 29.85 1011 10 16.09344 0 0
9:53 am 09:53 Sunny 74 23.3 57 13.9 56 56 SE 6 9 29.85 1011 10 16.09344 0 0
10:53 am 10:53 Sunny 77 25 56 13.3 48 48 E 6 9 29.83 1010 10 16.09344 0 0
11:53 am 11:53 Sunny 73 22.8 55 12.8 53 53 ESE 6 9 29.83 1010 10 16.09344 0 0
12:53 pm 12:53 Sunny 82 27.8 55 12.8 40 40 SSE 5 7 29.77 1008 10 16.09344 0 0
1:53 pm 13:53 Sunny 86 30 55 12.8 35 35 SSE 10 17 29.71 1006 10 16.09344 0 0
2:53 pm 14:53 Sunny 88 31.1 55 12.8 33 33 ESE 9 15 29.68 1005 10 16.09344 0 0
3:53 pm 15:53 Sunny 89 31.7 54 12.2 30 30 E 12 19 29.65 1004 10 16.09344 0 0
4:53 pm 16:53 Sunny 89 31.7 54 12.2 30 30 ESE 16 26 29.62 1003 10 16.09344 0 0
5:53 pm 17:53 Sunny 87 30.6 54 12.2 32 32 ESE 17 28 29.62 1003 10 16.09344 0 0
6:40 pm 18:40 Clear 88 31.1 49 9.4 26 26 SW 10 17 29.5 999 10 16.09344 0 0
6:53 pm 18:53 Clear 87 30.6 49 9.4 27 27 SW 10 17 29.62 1003 10 16.09344 0 0
7:53 pm 19:53 Clear 85 29.4 49 9.4 29 29 S 8 13 29.62 1003 10 16.09344 0 0
8:53 pm 20:53 Clear 84 28.9 49 9.4 30 30 S 12 19 29.62 1003 10 16.09344 0 0
9:53 pm 21:53 Clear 82 27.8 52 11.1 35 35 S 14 22 29.62 1003 10 16.09344 0 0
10:53 pm 22:53 Clear 79 26.1 53 11.7 41 41 SSE 13 20 29.62 1003 10 16.09344 0 0
11:53 pm 23:53 Clear 77 25 54 12.2 45 45 SSE 10 17 29.62 1003 10 16.09344 0 0

Powered by AerisWeather